Regional Weather Roundup
Issued by NWS Bismarck, ND

Home | Current Version | Previous Version | Text Only | Print | Product List | Glossary On
Versions: 1 2 3 4 5 6 7 8 9 10 11 12 13 14 15 16 17 18 19 20 21 22 23 24 25 26 27 28 29 30 31 32 33 34 35 36 37 38 39 40 41 42 43 44 45 46 47 48 49 50
000
ASUS43 KBIS 162359
RWRBIS

NWR BROADCAST TEXT
NATIONAL WEATHER SERVICE BISMARCK ND
700 PM CDT TUE SEP 16 2014

NOTE: "FAIR" INDICATES FEW OR NO CLOUDS BELOW 12,000 FEET WITH NO
SIGNIFICANT WEATHER AND/OR OBSTRUCTIONS TO VISIBILITY.


CITY           SKY/WX    TMP DP  RH WIND       PRES   REMARKS
WILLISTON      CLEAR     71  40  32 SW5       29.92S
MINOT          CLEAR     69  47  45 NW5       29.91S
MINOT AFB      CLEAR     70  46  42 E2        29.91S
BISMARCK       CLEAR     72  45  37 CALM      29.92S
DICKINSON      NOT AVBL
GARRISON         N/A     69  43  38 W3        29.92S
HETTINGER ARPT CLEAR     71  49  45 N7        29.93S
JAMESTOWN      NOT AVBL
CARRINGTON     FAIR      66  43  42 SE8       29.94S
HARVEY         FAIR      68  41  37 S6        29.92S
HAZEN          FAIR      68  45  42 NW7       29.93S
LINTON         FAIR      73  48  40 W6        29.91S
OAKES            N/A     68  54  60 SW3       29.92F
WATFORD CITY   FAIR      72  32  23 NE5       29.91S
$$

CITY           SKY/WX    TMP DP  RH WIND       PRES   REMARKS
GRAND FORKS    PTCLDY    67  48  50 S6        29.92S
GRAND FORKS AF CLEAR     67  46  45 S6        29.93S
DEVILS LAKE    CLEAR     66  45  45 SE5       29.91F
FARGO          CLEAR     67  45  45 SE5       29.94F
CAVALIER       FAIR      68  48  49 CALM      29.90S HAZE
GRAFTON        FAIR      68  45  42 SW8       29.90S
GWINNER        CLEAR     70  52  52 S6        29.93F
LANGDON        FAIR      68  37  32 SW9       29.91S
$$

CITY           SKY/WX    TMP DP  RH WIND       PRES   REMARKS
ABERDEEN       CLEAR     66  56  70 SE5       29.91F
MOBRIDGE       PTCLDY    74  51  44 CALM      29.89S
RAPID CITY     SUNNY     76  49  38 SE5       29.95S
GLASGOW        SUNNY     75  42  30 S5        29.89F
SIDNEY         SUNNY    N/A N/A N/A CALM      29.92S
WOLF POINT     SUNNY     78  39  24 CALM      29.89F
MILES CITY     PTSUNNY   78  46  32 E3        29.91F
BAKER          MOSUNNY   71  48  43 N8        29.95S
$$

CITY           SKY/WX    TMP DP  RH WIND       PRES   REMARKS
BILLINGS       PTSUNNY   82  36  19 S5        29.94F
GREAT FALLS    CLOUDY    73  47  39 S7        29.91F
$$



USA.gov is the U.S. government's official web portal to all federal, state and local government web resources and services.